Cape Canaveral, FL

10:24 PM EST on December 09, 2016 (GMT -0500)
Cape Canaveral Air Station Skid Strip

Weather History for KXMR - April, 2014

Change the Weather History Date:

Friday, April 11, 2014

  Actual Average (KCOF) Record (KCOF)
Temperature  
Mean Temperature 68 °F -  
Max Temperature 78 °F 77 °F 89 °F (1999)
Min Temperature 57 °F 64 °F 50 °F (1998)
Cooling Degree Days 2    
Growing Degree Days 18 (Base 50)    
Moisture  
Dew Point -    
Average Humidity    
Maximum Humidity    
Minimum Humidity    
Precipitation  
Precipitation 0.00 in - - ()
Sea Level Pressure  
Sea Level Pressure 30.22 in    
Wind  
Wind Speed 6 mph (ESE)    
Max Wind Speed 15 mph    
Max Gust Speed 21 mph    
Visibility 10 miles    
Events      
Averages and records for this station are not official NWS values.
T = Trace of Precipitation, MM = Missing Value Source: NWS Daily Summary

Daily Weather History Graph

Daily Weather History Graph

Search for Another Location

Airport or City:

Trip Planner

Search our weather history database for the weather conditions in past years. The results will help you decide how hot, cold, wet, or windy it might be!

Date:

Astronomy

Apr. 11, 2014 Rise Set
Actual Time 7:01 AM EDT 7:45 PM EDT
Civil Twilight 6:37 AM EDT 8:09 PM EDT
Nautical Twilight 6:08 AM EDT 8:38 PM EDT
Astronomical Twilight 5:40 AM EDT 9:06 PM EDT
Moon 4:40 PM EDT (4/11) 4:38 AM EDT (4/11)
Length of Visible Light 13h 32m
Length of Day
12h 44m
Waxing Gibbous, 87% of the Moon is Illuminated
Apr 11
Waxing Gibbous
Apr 15
Full
Apr 22
Last Quarter
Apr 29
New
May 6
First Quarter

Hourly Weather History & Observations

Time (EDT) Temp. Dew Point Humidity Pressure Visibility Wind Dir Wind Speed Gust Speed Precip Events Conditions
12:58 AM 60.8 °F - N/A% 30.28 in 10.0 mi ESE 2.3 mph - N/A   Clear
1:58 AM 57.2 °F - N/A% 30.25 in 10.0 mi ENE 1.2 mph - N/A   Clear
2:58 AM 57.2 °F - N/A% 30.24 in 10.0 mi ENE 2.3 mph - N/A   Clear
3:58 AM 59.0 °F - N/A% 30.22 in 10.0 mi East 3.5 mph - N/A   Partly Cloudy
4:58 AM 66.2 °F - N/A% 30.21 in 10.0 mi ESE 5.8 mph - N/A   Clear
5:58 AM 66.2 °F - N/A% 30.22 in 10.0 mi ESE 5.8 mph - N/A   Scattered Clouds
6:59 AM 66.2 °F - N/A% 30.23 in 10.0 mi ESE 4.6 mph - N/A   Clear
7:58 AM 69.8 °F - N/A% 30.25 in 10.0 mi ESE 3.5 mph - N/A   Partly Cloudy
8:58 AM 73.4 °F - N/A% 30.26 in 10.0 mi East 8.1 mph - N/A   Clear
9:58 AM 73.4 °F - N/A% 30.27 in 10.0 mi East 8.1 mph - N/A   Clear
10:59 AM 75.2 °F - N/A% 30.28 in 10.0 mi ESE 10.4 mph 18.4 mph N/A   Clear
11:58 AM 77.0 °F - N/A% 30.27 in 10.0 mi East 12.7 mph 17.3 mph N/A   Clear
12:58 PM 77.0 °F - N/A% 30.25 in 10.0 mi ESE 12.7 mph 20.7 mph N/A   Clear
1:58 PM 78.8 °F - N/A% 30.23 in 10.0 mi SE 13.8 mph - N/A   Clear
2:58 PM 77.0 °F - N/A% 30.21 in 10.0 mi ESE 10.4 mph 19.6 mph N/A   Clear
3:58 PM 77.0 °F - N/A% 30.19 in 10.0 mi SE 15.0 mph 20.7 mph N/A   Clear
4:58 PM 75.2 °F - N/A% 30.18 in 10.0 mi ESE 10.4 mph 18.4 mph N/A   Clear
5:58 PM 73.4 °F - N/A% 30.18 in 10.0 mi ESE 10.4 mph - N/A   Clear
6:58 PM 73.4 °F - N/A% 30.18 in 10.0 mi SE 9.2 mph - N/A   Clear
7:58 PM 71.6 °F - N/A% 30.18 in 10.0 mi ESE 6.9 mph - N/A   Mostly Cloudy
8:58 PM 69.8 °F - N/A% 30.19 in 10.0 mi ESE 5.8 mph - N/A   Clear
9:58 PM 69.8 °F - N/A% 30.20 in 10.0 mi ESE 6.9 mph - N/A   Clear
10:58 PM 69.8 °F - N/A% 30.19 in 10.0 mi ESE 6.9 mph - N/A   Clear
11:58 PM 69.8 °F - N/A% 30.19 in 10.0 mi ESE 5.8 mph - N/A   Clear